Skip Page Navigation
NASA JPL Caltech
NASA Logo - Jet Propulsion Laboratory + View the NASA Portal
+ Center for Near-Earth Object Studies
JPL Home Earth Solar System Stars & Galaxies Technology
JPL Solar System Dynamics
BODIES ORBITS EPHEMERIDES TOOLS PHYSICAL DATA DISCOVERY FAQ SITE MAP
JPL Small-Body Database Browser
Search: [ help ]  
136132 (2003 SC98)
Classification: Main-belt Asteroid          SPK-ID: 2136132
Ephemeris | Orbit Diagram | Orbital Elements | Mission Design | Physical Parameters | Discovery Circumstances | Close-Approach Data ]

[ show orbit diagram ]
Orbital Elements at Epoch 2459000.5 (2020-May-31.0) TDB
Reference: JPL 21 (heliocentric ecliptic J2000)
 Element Value Uncertainty (1-sigma)   Units 
e .1735652830022362 3.5707e-08  
a 2.309909016416722 1.1677e-08 au
q 1.908989004272937 8.5651e-08 au
i 9.872084419549406 4.2918e-06 deg
node 285.8441934881624 2.5647e-05 deg
peri 314.7683526450289 2.9203e-05 deg
M 28.12458741192051 1.451e-05 deg
tp 2458900.321529369491
(2020-Feb-20.82152937)
5.1457e-05 TDB
period 1282.303235200442
3.51
9.7235e-06
2.662e-08
d
yr
n .2807448270562361 2.1288e-09 deg/d
Q 2.710829028560508 1.3704e-08 au
  Orbit Determination Parameters
   # obs. used (total)      515  
   data-arc span      7645 days (20.93 yr)  
   first obs. used      1999-07-13  
   last obs. used      2020-06-17  
   planetary ephem.      DE431  
   SB-pert. ephem.      SB431-N16  
   condition code      0  
   norm. resid. RMS      .48337  
   source      ORB  
   producer      Otto Matic  
   solution date      2020-Jun-24 02:30:27  

Additional Information
 Earth MOID = .90951 au 
 Jupiter MOID = 2.37114 au 
 T_jup = 3.546 
[ show covariance matrix ]

Ephemeris | Orbit Diagram | Orbital Elements | Mission Design | Physical Parameters | Discovery Circumstances | Close-Approach Data ]

Physical Parameter Table
Parameter Symbol Value Units Sigma Reference Notes
absolute magnitude H 16.0   n/a MPO436669  

136132 (2003 SC98)          Discovered 2003-Sep-19 by NEAT at Palomar
Reference: 20060907/Numbers.arcLast Updated: 2006-09-10

[ show close-approach data ]
Ephemeris | Orbit Diagram | Orbital Elements | Mission Design | Physical Parameters | Discovery Circumstances | Close-Approach Data ]
ABOUT SSD CREDITS/AWARDS PRIVACY/COPYRIGHT GLOSSARY LINKS
FirstGov 2020-Jul-06 06:16 UT
(server date/time)  
NASA Home Page
Site Manager:   Ryan S. Park
Webmaster  Alan B. Chamberlin